Regional Weather Roundup
Issued by NWS Spokane, WA

Home | Current Version | Previous Version | Text Only | Print | Product List | Glossary On
Versions: 1 2 3 4 5 6 7 8 9 10 11 12 13 14 15 16 17 18 19 20 21 22 23 24 25 26 27 28 29 30 31 32 33 34 35 36 37 38 39 40 41 42 43 44 45 46 47 48 49 50
000
NZUS01 KOTX 191210
RWROTX
EASTERN WASHINGTON/NORTHERN IDAHO ROUNDUP
NATIONAL WEATHER SERVICE, SPOKANE WA
500 AM PDT SAT APR 19 2014

Note: "fair" indicated few or no clouds below 12,000 feet with no
significant weather and/or obstructions to visibility.

...NORTHEAST WASHINGTON AND NORTHERN IDAHO PANHANDLE...

CITY           SKY/WX    TMP DP  RH WIND       PRES   REMARKS
SPOKANE INTL   CLEAR     34  27  75 CALM      29.93S
SPOKANE DOWNTO CLEAR     33  28  81 NE3       29.96S
COEUR D ALENE  CLEAR     30  27  86 E5        29.97S WCI  25
DEER PARK      CLEAR     28  23  81 CALM      29.95S
SANDPOINT      CLEAR     34  32  93 NE5       29.97S WCI  30

...SOUTHEAST WASHINGTON AND SOUTHERN IDAHO PANHANDLE...

CITY           SKY/WX    TMP DP  RH WIND       PRES   REMARKS
WALLA WALLA    CLEAR     37  30  75 CALM      29.89F
PULLMAN/MOSCOW CLEAR     37  27  67 E16       29.94S
LEWISTON       CLEAR     39  28  64 E9        29.96S
LOWELL           N/A     32  30  92 NW5       30.07S WCI  27

...COLUMBIA BASIN...

CITY           SKY/WX    TMP DP  RH WIND       PRES   REMARKS
EPHRATA        CLEAR     33  25  72 N6        29.91F WCI  28
MOSES LAKE     CLEAR     29  23  78 N8        29.91F WCI  21
TRI CITIES     CLEAR     31  30  96 N6        29.92F WCI  25
HERMISTON      CLEAR     35  31  85 S3        29.89S
PENDLETON      CLEAR     35  28  75 SE6       29.86F

...EAST SLOPES CASCADES...

CITY           SKY/WX    TMP DP  RH WIND       PRES   REMARKS
THE DALLES     CLEAR     37  34  89 SE5       29.91F
YAKIMA         PTCLDY    33  26  75 W8        29.91F WCI  26
ELLENSBURG     PTCLDY    26  22  84 CALM      29.90F
WENATCHEE      CLEAR     37  27  67 W5        29.92F
OMAK           CLEAR     29  21  72 W3        29.93S

...SOUTHERN BRITISH COLUMBIA...

CITY           SKY/WX    TMP DP  RH WIND       PRES   REMARKS
PENTICTON      PTCLDY    30  25  80 CALM      29.92S
CRANBROOK      PTCLDY    32  27  80 SW5       29.94S WCI  27

...WESTERN MONTANA...

CITY           SKY/WX    TMP DP  RH WIND       PRES   REMARKS
MISSOULA       CLEAR     25  20  81 CALM      30.03S

...NEIGHBORING CITIES...

CITY           SKY/WX    TMP DP  RH WIND       PRES   REMARKS
SEATTLE        MOCLDY    43  37  79 NW3       29.81S
CALGARY        MOCLDY    30  30 100 SW6       29.83S WCI  24



USA.gov is the U.S. government's official web portal to all federal, state and local government web resources and services.